AAL908 SAEZ-KMIA

Flight info

Callsign AAL908
Flight time N/A
Altitude 36000
Route BIVAM3A BIVAM UW8 PAR UL417 UBRIX/N0482F380 UL417 PABON/N0482F400 UL417 LENAX UL795 ALTIB UM779 ZEUSS VIICE2
Aircraft B772/H-SDE2E3FGHIJ5LORVWXY/LB1D1

Departure

Time N/A
Airport Ezeiza International Airport - Ministro Pistarini (SAEZ)

Arrival

Time 2026-05-05 09:29
Airport Miami International Airport (KMIA)
Time Latitude Longitude Altitude Speed Heading
2026-05-05 02:51 -21.97537 -64.14309 37935 ft 465 kts 337°
2026-05-05 02:51 -21.94388 -64.15289 37942 ft 465 kts 338°
2026-05-05 02:52 -21.88176 -64.17221 37931 ft 465 kts 338°
2026-05-05 02:52 -21.81968 -64.19148 37934 ft 464 kts 338°
2026-05-05 02:53 -21.75777 -64.21070 37952 ft 464 kts 338°
2026-05-05 02:53 -21.69571 -64.22996 37944 ft 465 kts 338°
2026-05-05 02:54 -21.63352 -64.24922 37957 ft 465 kts 338°
2026-05-05 02:54 -21.57119 -64.26852 37950 ft 466 kts 338°
2026-05-05 02:55 -21.50915 -64.28770 37945 ft 468 kts 338°
2026-05-05 02:55 -21.44665 -64.30698 37929 ft 467 kts 338°
2026-05-05 02:56 -21.38435 -64.32623 37945 ft 464 kts 338°
2026-05-05 02:56 -21.32228 -64.34552 37924 ft 464 kts 337°
2026-05-05 02:57 -21.26017 -64.36507 37982 ft 467 kts 338°
2026-05-05 02:57 -21.19742 -64.38486 37972 ft 471 kts 338°
2026-05-05 02:58 -21.13421 -64.40469 37953 ft 474 kts 338°
2026-05-05 02:58 -21.07117 -64.42440 37945 ft 469 kts 338°
2026-05-05 02:59 -21.00872 -64.44396 37958 ft 467 kts 338°
2026-05-05 02:59 -20.94629 -64.46353 37960 ft 468 kts 338°
2026-05-05 03:00 -20.88364 -64.48305 37957 ft 469 kts 338°
2026-05-05 03:00 -20.82093 -64.50244 37930 ft 467 kts 338°
2026-05-05 03:01 -20.75848 -64.52176 37965 ft 468 kts 338°
2026-05-05 03:01 -20.69602 -64.54112 37940 ft 468 kts 338°
2026-05-05 03:02 -20.63332 -64.56050 37947 ft 469 kts 338°
2026-05-05 03:02 -20.57059 -64.57987 37940 ft 470 kts 338°
2026-05-05 03:03 -20.50783 -64.59925 37966 ft 469 kts 339°
2026-05-05 03:03 -20.44553 -64.61847 37953 ft 469 kts 338°
2026-05-05 03:04 -20.38294 -64.63775 37955 ft 467 kts 338°
2026-05-05 03:04 -20.32058 -64.65700 37971 ft 466 kts 338°
2026-05-05 03:05 -20.25829 -64.67647 37972 ft 467 kts 338°
2026-05-05 03:05 -20.19589 -64.69603 37978 ft 468 kts 338°
2026-05-05 03:06 -20.13343 -64.71557 37980 ft 468 kts 338°
2026-05-05 03:06 -20.07079 -64.73512 37985 ft 470 kts 338°
2026-05-05 03:07 -20.00799 -64.75471 38000 ft 471 kts 339°
2026-05-05 03:07 -19.94500 -64.77436 37998 ft 472 kts 339°
2026-05-05 03:08 -19.88206 -64.79399 38015 ft 470 kts 339°
2026-05-05 03:08 -19.81930 -64.81343 38010 ft 469 kts 339°
2026-05-05 03:09 -19.75654 -64.83290 38026 ft 471 kts 339°
2026-05-05 03:09 -19.69344 -64.85255 38024 ft 474 kts 339°
2026-05-05 03:10 -19.63003 -64.87225 38028 ft 475 kts 339°
2026-05-05 03:10 -19.56660 -64.89192 38038 ft 474 kts 339°
2026-05-05 03:11 -19.50324 -64.91154 38070 ft 474 kts 339°
2026-05-05 03:11 -19.43987 -64.93115 38163 ft 474 kts 339°
2026-05-05 03:12 -19.37665 -64.95071 38237 ft 473 kts 339°
2026-05-05 03:12 -19.31349 -64.97038 38322 ft 474 kts 339°
2026-05-05 03:13 -19.25012 -64.99016 38375 ft 475 kts 339°
2026-05-05 03:13 -19.18662 -65.00996 38383 ft 476 kts 339°
2026-05-05 03:14 -19.12310 -65.02978 38353 ft 476 kts 339°
2026-05-05 03:14 -19.05967 -65.04974 38308 ft 476 kts 339°
2026-05-05 03:15 -18.99626 -65.06966 38233 ft 476 kts 339°
2026-05-05 03:15 -18.93277 -65.08956 38156 ft 476 kts 339°
2026-05-05 03:16 -18.86934 -65.10946 38106 ft 476 kts 339°
2026-05-05 03:16 -18.80585 -65.12930 38102 ft 476 kts 339°
2026-05-05 03:17 -18.74246 -65.14910 38107 ft 475 kts 339°
2026-05-05 03:17 -18.67955 -65.16873 38118 ft 474 kts 339°
2026-05-05 03:18 -18.61623 -65.18850 38117 ft 475 kts 339°
2026-05-05 03:18 -18.55283 -65.20826 38129 ft 475 kts 339°
2026-05-05 03:19 -18.45776 -65.23788 38132 ft 475 kts 339°
2026-05-05 03:19 -18.39432 -65.25763 38140 ft 475 kts 339°
2026-05-05 03:20 -18.33092 -65.27736 38143 ft 474 kts 339°
2026-05-05 03:20 -18.26763 -65.29698 38167 ft 473 kts 339°
2026-05-05 03:21 -18.20491 -65.31648 38159 ft 473 kts 339°
2026-05-05 03:21 -18.14163 -65.33612 38156 ft 474 kts 339°
2026-05-05 03:22 -18.07826 -65.35576 38186 ft 475 kts 340°
2026-05-05 03:22 -18.01474 -65.37544 38173 ft 476 kts 340°
2026-05-05 03:23 -17.95122 -65.39510 38183 ft 475 kts 340°
2026-05-05 03:23 -17.88774 -65.41473 38210 ft 475 kts 340°
2026-05-05 03:24 -17.82420 -65.43438 38214 ft 476 kts 340°
2026-05-05 03:24 -17.76070 -65.45400 38212 ft 476 kts 340°
2026-05-05 03:25 -17.69728 -65.47357 38245 ft 475 kts 340°
2026-05-05 03:25 -17.63389 -65.49308 38264 ft 474 kts 340°
2026-05-05 03:26 -17.57060 -65.51242 38278 ft 474 kts 340°
2026-05-05 03:26 -17.50717 -65.53180 38273 ft 475 kts 340°
2026-05-05 03:27 -17.44377 -65.55121 38253 ft 475 kts 340°
2026-05-05 03:27 -17.38041 -65.57088 38278 ft 475 kts 340°
2026-05-05 03:28 -17.31706 -65.59060 38275 ft 474 kts 340°
2026-05-05 03:28 -17.25387 -65.61022 38270 ft 473 kts 340°
2026-05-05 03:29 -17.19070 -65.62983 38262 ft 474 kts 340°
2026-05-05 03:29 -17.12755 -65.64939 38268 ft 473 kts 340°
2026-05-05 03:30 -17.06429 -65.66901 38234 ft 475 kts 340°
2026-05-05 03:30 -17.00091 -65.68873 38230 ft 475 kts 340°
2026-05-05 03:31 -16.93751 -65.70848 38219 ft 476 kts 339°
2026-05-05 03:31 -16.87409 -65.72822 38211 ft 475 kts 340°
2026-05-05 03:32 -16.82140 -65.74460 38207 ft 474 kts 340°
2026-05-05 03:32 -16.75828 -65.76432 38202 ft 474 kts 340°
2026-05-05 03:33 -16.69509 -65.78413 38189 ft 474 kts 340°
2026-05-05 03:33 -16.63189 -65.80393 38175 ft 475 kts 340°
2026-05-05 03:34 -16.56859 -65.82371 38169 ft 475 kts 340°
2026-05-05 03:34 -16.50529 -65.84349 38152 ft 475 kts 340°
2026-05-05 03:35 -16.44199 -65.86324 38145 ft 475 kts 340°
2026-05-05 03:35 -16.37857 -65.88303 38129 ft 476 kts 340°
2026-05-05 03:36 -16.31508 -65.90282 38118 ft 476 kts 340°
2026-05-05 03:36 -16.25163 -65.92259 38111 ft 476 kts 340°
2026-05-05 03:37 -16.18819 -65.94234 38096 ft 476 kts 340°
2026-05-05 03:37 -16.12475 -65.96208 38088 ft 476 kts 340°
2026-05-05 03:38 -16.06130 -65.98180 38083 ft 476 kts 340°
2026-05-05 03:38 -15.99784 -66.00152 38072 ft 476 kts 340°
2026-05-05 03:39 -15.93438 -66.02122 38064 ft 476 kts 340°
2026-05-05 03:39 -15.87092 -66.04091 38056 ft 476 kts 340°
2026-05-05 03:40 -15.80753 -66.06057 38049 ft 476 kts 340°
2026-05-05 03:40 -15.74407 -66.08024 38043 ft 476 kts 340°
2026-05-05 03:41 -15.68060 -66.09989 38038 ft 476 kts 340°
2026-05-05 03:41 -15.61719 -66.11952 38030 ft 476 kts 341°
2026-05-05 03:42 -15.55372 -66.13915 38023 ft 476 kts 341°
2026-05-05 03:42 -15.49027 -66.15877 38019 ft 476 kts 341°
2026-05-05 03:43 -15.42676 -66.17840 38010 ft 476 kts 341°
2026-05-05 03:43 -15.36337 -66.19827 38008 ft 476 kts 341°
2026-05-05 03:44 -15.29998 -66.21822 37999 ft 476 kts 341°
2026-05-05 03:44 -15.23655 -66.23815 37992 ft 476 kts 341°
2026-05-05 03:45 -15.17307 -66.25805 37987 ft 477 kts 341°
2026-05-05 03:45 -15.10956 -66.27795 37978 ft 477 kts 341°
2026-05-05 03:46 -15.04608 -66.29782 37972 ft 477 kts 341°
2026-05-05 03:46 -14.98255 -66.31770 37968 ft 477 kts 341°
2026-05-05 03:47 -14.91940 -66.33745 37971 ft 477 kts 341°
2026-05-05 03:47 -14.85590 -66.35730 37970 ft 477 kts 341°
2026-05-05 03:48 -14.79201 -66.37725 37971 ft 477 kts 341°
2026-05-05 03:48 -14.72891 -66.39695 37969 ft 476 kts 341°
2026-05-05 03:49 -14.66548 -66.41674 37969 ft 476 kts 341°
2026-05-05 03:49 -14.60205 -66.43652 37970 ft 476 kts 341°
2026-05-05 03:50 -14.53869 -66.45627 37968 ft 476 kts 341°
2026-05-05 03:50 -14.47539 -66.47604 37971 ft 475 kts 341°
2026-05-05 03:51 -14.41209 -66.49585 37971 ft 475 kts 341°
2026-05-05 03:51 -14.34887 -66.51562 37975 ft 475 kts 341°
2026-05-05 03:52 -14.28567 -66.53536 37974 ft 474 kts 341°
2026-05-05 03:52 -14.22250 -66.55508 37968 ft 474 kts 341°
2026-05-05 03:53 -14.15945 -66.57475 37970 ft 473 kts 341°
2026-05-05 03:53 -14.09648 -66.59439 37972 ft 473 kts 342°
2026-05-05 03:54 -14.03354 -66.61400 37976 ft 472 kts 342°
2026-05-05 03:54 -13.97064 -66.63359 37975 ft 472 kts 342°
2026-05-05 03:55 -13.90787 -66.65313 37975 ft 471 kts 342°
2026-05-05 03:55 -13.84512 -66.67266 37973 ft 471 kts 342°
2026-05-05 03:56 -13.78240 -66.69216 37975 ft 470 kts 342°
2026-05-05 03:56 -13.72014 -66.71151 37974 ft 470 kts 342°
2026-05-05 03:57 -13.65709 -66.73109 37978 ft 470 kts 342°
2026-05-05 03:57 -13.59450 -66.75052 37976 ft 470 kts 342°
2026-05-05 03:58 -13.53235 -66.76980 37974 ft 470 kts 342°
2026-05-05 03:58 -13.46978 -66.78920 37977 ft 470 kts 342°
2026-05-05 03:59 -13.40716 -66.80861 37975 ft 470 kts 342°
2026-05-05 03:59 -13.34405 -66.82816 37978 ft 470 kts 342°
2026-05-05 04:00 -13.28139 -66.84756 37978 ft 471 kts 342°
2026-05-05 04:00 -13.21863 -66.86698 37980 ft 471 kts 342°
2026-05-05 04:01 -13.15577 -66.88643 37978 ft 472 kts 342°
2026-05-05 04:01 -13.09289 -66.90586 37982 ft 472 kts 342°
2026-05-05 04:02 -13.03002 -66.92542 37979 ft 472 kts 342°
2026-05-05 04:02 -12.96716 -66.94513 37980 ft 472 kts 342°
2026-05-05 04:03 -12.90469 -66.96471 37987 ft 473 kts 342°
2026-05-05 04:03 -12.84180 -66.98439 37981 ft 473 kts 342°
2026-05-05 04:04 -12.77890 -67.00405 37982 ft 473 kts 342°
2026-05-05 04:04 -12.71593 -67.02372 37981 ft 472 kts 342°
2026-05-05 04:05 -12.65303 -67.04336 37982 ft 472 kts 342°
2026-05-05 04:05 -12.59022 -67.06295 37982 ft 472 kts 342°
2026-05-05 04:06 -12.52745 -67.08253 37983 ft 471 kts 342°
2026-05-05 04:06 -12.46469 -67.10210 37983 ft 471 kts 342°
2026-05-05 04:07 -12.40196 -67.12164 37981 ft 471 kts 342°
2026-05-05 04:07 -12.33922 -67.14118 37985 ft 471 kts 342°
2026-05-05 04:08 -12.27650 -67.16071 37982 ft 471 kts 342°
2026-05-05 04:08 -12.21377 -67.18022 37985 ft 472 kts 342°
2026-05-05 04:09 -12.15097 -67.19975 37988 ft 472 kts 342°
2026-05-05 04:09 -12.08807 -67.21930 37987 ft 473 kts 342°
2026-05-05 04:10 -12.02514 -67.23885 37984 ft 473 kts 342°
2026-05-05 04:10 -11.96206 -67.25844 37984 ft 474 kts 342°
2026-05-05 04:11 -11.89897 -67.27802 37985 ft 474 kts 342°
2026-05-05 04:11 -11.83575 -67.29763 37985 ft 475 kts 342°
2026-05-05 04:12 -11.77242 -67.31726 37988 ft 476 kts 342°
2026-05-05 04:12 -11.70897 -67.33692 37987 ft 477 kts 342°
2026-05-05 04:13 -11.64544 -67.35660 37990 ft 477 kts 342°
2026-05-05 04:13 -11.58183 -67.37630 37989 ft 478 kts 342°
2026-05-05 04:14 -11.52888 -67.39269 37990 ft 479 kts 342°
2026-05-05 04:14 -11.46511 -67.41241 37989 ft 479 kts 342°
2026-05-05 04:15 -11.40124 -67.43216 37992 ft 480 kts 342°
2026-05-05 04:15 -11.33726 -67.45193 37993 ft 481 kts 342°
2026-05-05 04:16 -11.27320 -67.47172 37993 ft 481 kts 342°
2026-05-05 04:16 -11.20903 -67.49153 37994 ft 482 kts 342°
2026-05-05 04:17 -11.14480 -67.51136 37995 ft 483 kts 342°
2026-05-05 04:17 -11.08048 -67.53120 37994 ft 483 kts 342°
2026-05-05 04:18 -11.01609 -67.55105 37994 ft 483 kts 342°
2026-05-05 04:18 -10.95177 -67.57088 37997 ft 483 kts 343°
2026-05-05 04:19 -10.88782 -67.59057 37997 ft 483 kts 343°
2026-05-05 04:19 -10.82346 -67.61039 37999 ft 483 kts 343°
2026-05-05 04:20 -10.75872 -67.63032 38003 ft 483 kts 343°
2026-05-05 04:20 -10.69441 -67.65011 38000 ft 483 kts 343°
2026-05-05 04:21 -10.63013 -67.66988 38000 ft 482 kts 343°
2026-05-05 04:21 -10.56630 -67.68960 38004 ft 482 kts 343°
2026-05-05 04:22 -10.50219 -67.70966 38000 ft 482 kts 342°
2026-05-05 04:22 -10.43809 -67.72974 38003 ft 482 kts 342°
2026-05-05 04:23 -10.37404 -67.74975 38003 ft 481 kts 342°
2026-05-05 04:23 -10.31003 -67.76973 38000 ft 481 kts 342°
2026-05-05 04:24 -10.24604 -67.78969 37999 ft 481 kts 342°
2026-05-05 04:25 -10.15013 -67.81960 38006 ft 480 kts 342°
2026-05-05 04:25 -10.08626 -67.83951 38015 ft 480 kts 342°
2026-05-05 04:26 -10.02244 -67.85939 38015 ft 480 kts 342°
2026-05-05 04:26 -9.95866 -67.87926 38020 ft 479 kts 342°
2026-05-05 04:27 -9.89486 -67.89912 38021 ft 479 kts 342°
2026-05-05 04:27 -9.83089 -67.91833 38022 ft 479 kts 344°
2026-05-05 04:28 -9.76660 -67.93633 38018 ft 479 kts 344°
2026-05-05 04:28 -9.70236 -67.95428 38017 ft 479 kts 344°
2026-05-05 04:29 -9.63817 -67.97240 38017 ft 479 kts 344°
2026-05-05 04:29 -9.57393 -67.99062 38008 ft 479 kts 344°
2026-05-05 04:30 -9.50970 -68.00883 38007 ft 479 kts 344°
2026-05-05 04:30 -9.44546 -68.02703 38005 ft 480 kts 344°
2026-05-05 04:31 -9.38151 -68.04513 38005 ft 480 kts 344°
2026-05-05 04:31 -9.31676 -68.06345 38007 ft 480 kts 344°
2026-05-05 04:32 -9.25274 -68.08156 38009 ft 480 kts 344°
2026-05-05 04:32 -9.18841 -68.10010 38007 ft 481 kts 343°
2026-05-05 04:33 -9.12429 -68.11942 38007 ft 481 kts 343°
2026-05-05 04:33 -9.06017 -68.13882 38011 ft 481 kts 343°
2026-05-05 04:34 -8.99604 -68.15811 38012 ft 481 kts 343°
2026-05-05 04:34 -8.93184 -68.17734 38008 ft 481 kts 343°
2026-05-05 04:35 -8.86767 -68.19655 38012 ft 481 kts 343°
2026-05-05 04:35 -8.80349 -68.21575 38011 ft 481 kts 343°
2026-05-05 04:36 -8.73931 -68.23495 38011 ft 481 kts 343°
2026-05-05 04:36 -8.67516 -68.25413 38013 ft 481 kts 343°
2026-05-05 04:37 -8.61097 -68.27332 38013 ft 481 kts 343°
2026-05-05 04:37 -8.54688 -68.29248 38011 ft 480 kts 343°
2026-05-05 04:38 -8.48280 -68.31162 38013 ft 480 kts 343°
2026-05-05 04:38 -8.41877 -68.33074 38008 ft 480 kts 343°
2026-05-05 04:39 -8.35475 -68.34986 38012 ft 480 kts 343°
2026-05-05 04:39 -8.29122 -68.36882 38012 ft 479 kts 343°
2026-05-05 04:40 -8.22729 -68.38789 38010 ft 479 kts 344°
2026-05-05 04:40 -8.16334 -68.40696 38011 ft 479 kts 343°
2026-05-05 04:41 -8.09945 -68.42601 38009 ft 478 kts 344°
2026-05-05 04:41 -8.03560 -68.44504 38012 ft 478 kts 344°
2026-05-05 04:42 -7.97184 -68.46404 38015 ft 478 kts 344°
2026-05-05 04:42 -7.90806 -68.48304 38014 ft 477 kts 344°
2026-05-05 04:43 -7.84437 -68.50200 38016 ft 477 kts 344°
2026-05-05 04:43 -7.78074 -68.52095 38011 ft 477 kts 344°
2026-05-05 04:44 -7.71708 -68.53989 38014 ft 477 kts 344°
2026-05-05 04:44 -7.65345 -68.55883 38016 ft 477 kts 344°
2026-05-05 04:45 -7.58982 -68.57770 38014 ft 477 kts 344°
2026-05-05 04:45 -7.52611 -68.59647 38016 ft 477 kts 344°
2026-05-05 04:46 -7.46236 -68.61523 38018 ft 477 kts 344°
2026-05-05 04:46 -7.39898 -68.63389 38017 ft 478 kts 344°
2026-05-05 04:47 -7.33520 -68.65269 38013 ft 478 kts 344°
2026-05-05 04:47 -7.27135 -68.67149 38013 ft 478 kts 344°
2026-05-05 04:48 -7.20748 -68.69030 38013 ft 479 kts 344°
2026-05-05 04:48 -7.14353 -68.70912 38013 ft 479 kts 344°
2026-05-05 04:49 -7.07958 -68.72795 38031 ft 479 kts 346°
2026-05-05 04:49 -7.01548 -68.74680 38017 ft 481 kts 345°
2026-05-05 04:50 -6.95120 -68.76570 38013 ft 481 kts 345°
2026-05-05 04:50 -6.88686 -68.78462 38010 ft 482 kts 345°
2026-05-05 04:51 -6.82243 -68.80356 38010 ft 482 kts 345°
2026-05-05 04:51 -6.75798 -68.82250 38009 ft 482 kts 345°
2026-05-05 04:52 -6.69358 -68.84143 38005 ft 482 kts 345°
2026-05-05 04:52 -6.62918 -68.86040 38010 ft 482 kts 345°
2026-05-05 04:53 -6.56501 -68.88002 38008 ft 482 kts 345°
2026-05-05 04:53 -6.50077 -68.89933 38009 ft 482 kts 345°
2026-05-05 04:54 -6.43641 -68.91826 38002 ft 482 kts 345°
2026-05-05 04:54 -6.38289 -68.93401 38009 ft 482 kts 345°
2026-05-05 04:55 -6.30759 -68.95624 38004 ft 482 kts 345°
2026-05-05 04:55 -6.24318 -68.97529 38004 ft 483 kts 345°
2026-05-05 04:56 -6.17862 -68.99438 38007 ft 483 kts 345°
2026-05-05 04:56 -6.11410 -69.01346 38004 ft 484 kts 345°
2026-05-05 04:57 -6.04955 -69.03253 38004 ft 484 kts 345°
2026-05-05 04:57 -5.98490 -69.05163 38004 ft 484 kts 345°
2026-05-05 04:58 -5.92060 -69.07062 38008 ft 485 kts 345°
2026-05-05 04:58 -5.85576 -69.08977 38003 ft 485 kts 345°
2026-05-05 04:59 -5.79096 -69.10890 38001 ft 485 kts 345°
2026-05-05 04:59 -5.73669 -69.12492 38005 ft 485 kts 345°
2026-05-05 05:00 -5.67187 -69.14405 38003 ft 485 kts 345°
2026-05-05 05:00 -5.60710 -69.16315 38002 ft 485 kts 345°
2026-05-05 05:01 -5.54236 -69.18225 38005 ft 485 kts 345°
2026-05-05 05:01 -5.47814 -69.20119 38003 ft 484 kts 345°
2026-05-05 05:02 -5.41346 -69.22026 38004 ft 484 kts 345°
2026-05-05 05:02 -5.34887 -69.23929 38000 ft 484 kts 345°
2026-05-05 05:03 -5.28429 -69.25833 38003 ft 484 kts 346°
2026-05-05 05:03 -5.21968 -69.27736 38002 ft 484 kts 346°
2026-05-05 05:04 -5.15512 -69.29638 38002 ft 484 kts 346°
2026-05-05 05:04 -5.09051 -69.31540 38004 ft 484 kts 346°
2026-05-05 05:05 -5.02591 -69.33443 38002 ft 484 kts 345°
2026-05-05 05:05 -4.96125 -69.35346 37999 ft 484 kts 345°
2026-05-05 05:06 -4.89661 -69.37249 38000 ft 484 kts 345°
2026-05-05 05:06 -4.83198 -69.39151 38006 ft 484 kts 345°
2026-05-05 05:07 -4.76725 -69.41056 38003 ft 484 kts 345°
2026-05-05 05:07 -4.70261 -69.42957 38003 ft 484 kts 345°
2026-05-05 05:08 -4.63807 -69.44875 37996 ft 484 kts 345°
2026-05-05 05:08 -4.57358 -69.46816 38002 ft 484 kts 345°
2026-05-05 05:09 -4.50912 -69.48756 37996 ft 483 kts 345°
2026-05-05 05:09 -4.44471 -69.50690 37996 ft 483 kts 345°
2026-05-05 05:10 -4.38034 -69.52621 37996 ft 482 kts 345°
2026-05-05 05:10 -4.31607 -69.54549 37999 ft 482 kts 345°
2026-05-05 05:11 -4.25200 -69.56470 37997 ft 481 kts 345°
2026-05-05 05:11 -4.18808 -69.58387 37998 ft 481 kts 345°
2026-05-05 05:12 -4.12394 -69.60310 37992 ft 481 kts 345°
2026-05-05 05:12 -4.05977 -69.62229 37994 ft 481 kts 345°
2026-05-05 05:13 -3.99557 -69.64148 37994 ft 481 kts 345°
2026-05-05 05:13 -3.93136 -69.66068 37996 ft 482 kts 345°
2026-05-05 05:14 -3.86712 -69.67989 38001 ft 482 kts 345°
2026-05-05 05:14 -3.80289 -69.69909 37997 ft 482 kts 345°
2026-05-05 05:15 -3.73852 -69.71833 38004 ft 483 kts 345°
2026-05-05 05:15 -3.67412 -69.73758 38004 ft 483 kts 345°
2026-05-05 05:16 -3.60963 -69.75685 38004 ft 484 kts 345°
2026-05-05 05:16 -3.54512 -69.77613 38005 ft 484 kts 345°
2026-05-05 05:17 -3.48049 -69.79544 38005 ft 485 kts 345°
2026-05-05 05:17 -3.41575 -69.81454 38004 ft 485 kts 345°
2026-05-05 05:18 -3.35102 -69.83348 38003 ft 485 kts 345°
2026-05-05 05:18 -3.28629 -69.85245 38004 ft 485 kts 345°
2026-05-05 05:19 -3.22158 -69.87144 38002 ft 484 kts 345°
2026-05-05 05:19 -3.15691 -69.89043 37998 ft 484 kts 345°
2026-05-05 05:20 -3.09269 -69.90928 38001 ft 484 kts 345°
2026-05-05 05:20 -3.02812 -69.92823 38002 ft 483 kts 345°
2026-05-05 05:21 -2.96356 -69.94718 38007 ft 484 kts 345°
2026-05-05 05:21 -2.93120 -69.95667 38147 ft 485 kts 345°
2026-05-05 05:21 -2.89887 -69.96616 38418 ft 483 kts 345°
2026-05-05 05:21 -2.86666 -69.97561 38709 ft 481 kts 345°
2026-05-05 05:22 -2.83467 -69.98501 38945 ft 479 kts 345°
2026-05-05 05:22 -2.80270 -69.99439 39149 ft 478 kts 345°
2026-05-05 05:22 -2.77084 -70.00373 39348 ft 477 kts 345°
2026-05-05 05:22 -2.73901 -70.01307 39530 ft 476 kts 345°
2026-05-05 05:23 -2.70724 -70.02240 39703 ft 476 kts 345°
2026-05-05 05:23 -2.67557 -70.03210 39867 ft 476 kts 344°
2026-05-05 05:23 -2.64400 -70.04213 39938 ft 477 kts 343°
2026-05-05 05:24 -2.58079 -70.06258 39990 ft 477 kts 343°
2026-05-05 05:24 -2.51770 -70.08294 39995 ft 476 kts 343°
2026-05-05 05:25 -2.45466 -70.10312 39996 ft 475 kts 343°
2026-05-05 05:25 -2.39180 -70.12318 39991 ft 474 kts 343°
2026-05-05 05:26 -2.32891 -70.14323 39994 ft 474 kts 343°
2026-05-05 05:26 -2.26605 -70.16328 39994 ft 474 kts 343°
2026-05-05 05:27 -2.20310 -70.18336 39997 ft 475 kts 343°
2026-05-05 05:27 -2.10855 -70.21352 39997 ft 476 kts 343°
2026-05-05 05:28 -2.04531 -70.23369 39997 ft 477 kts 343°
2026-05-05 05:28 -1.98204 -70.25386 39996 ft 478 kts 343°
2026-05-05 05:29 -1.91856 -70.27410 39995 ft 479 kts 343°
2026-05-05 05:29 -1.85504 -70.29436 39995 ft 479 kts 343°
2026-05-05 05:30 -1.79151 -70.31461 39999 ft 480 kts 343°
2026-05-05 05:30 -1.72789 -70.33490 39996 ft 480 kts 343°
2026-05-05 05:31 -1.66432 -70.35516 39997 ft 479 kts 343°
2026-05-05 05:31 -1.60077 -70.37542 39998 ft 479 kts 343°
2026-05-05 05:32 -1.53731 -70.39565 39995 ft 478 kts 343°
2026-05-05 05:32 -1.47439 -70.41570 39996 ft 478 kts 343°
2026-05-05 05:33 -1.41106 -70.43588 39996 ft 477 kts 343°
2026-05-05 05:33 -1.34782 -70.45603 39997 ft 477 kts 343°
2026-05-05 05:34 -1.28460 -70.47618 39996 ft 477 kts 343°
2026-05-05 05:34 -1.22137 -70.49633 40000 ft 477 kts 343°
2026-05-05 05:35 -1.15776 -70.51660 39999 ft 477 kts 343°
2026-05-05 05:35 -1.09501 -70.53659 40001 ft 477 kts 343°
2026-05-05 05:36 -1.03173 -70.55675 39998 ft 477 kts 343°
2026-05-05 05:36 -0.96851 -70.57689 39994 ft 477 kts 343°
2026-05-05 05:37 -0.90530 -70.59703 40000 ft 477 kts 343°
2026-05-05 05:37 -0.84209 -70.61717 39999 ft 477 kts 342°
2026-05-05 05:38 -0.77889 -70.63730 40001 ft 477 kts 343°
2026-05-05 05:38 -0.71569 -70.65743 40000 ft 477 kts 342°
2026-05-05 05:39 -0.65249 -70.67757 40001 ft 477 kts 342°
2026-05-05 05:39 -0.58919 -70.69773 40004 ft 477 kts 342°
2026-05-05 05:40 -0.52607 -70.71783 40002 ft 477 kts 342°
2026-05-05 05:40 -0.46289 -70.73796 40004 ft 476 kts 342°
2026-05-05 05:41 -0.39969 -70.75809 40003 ft 476 kts 342°
2026-05-05 05:41 -0.33651 -70.77821 40005 ft 476 kts 342°
2026-05-05 05:42 -0.27340 -70.79831 40008 ft 476 kts 342°
2026-05-05 05:42 -0.22097 -70.81501 40005 ft 476 kts 342°
2026-05-05 05:43 -0.15789 -70.83510 40004 ft 476 kts 342°
2026-05-05 05:43 -0.09481 -70.85519 40005 ft 476 kts 342°
2026-05-05 05:44 -0.03177 -70.87527 40005 ft 476 kts 342°
2026-05-05 05:44 0.03132 -70.89536 40006 ft 476 kts 342°
2026-05-05 05:45 0.09438 -70.91545 40006 ft 476 kts 342°
2026-05-05 05:45 0.15749 -70.93554 40008 ft 476 kts 342°
2026-05-05 05:46 0.22062 -70.95565 40005 ft 476 kts 342°
2026-05-05 05:46 0.28380 -70.97577 40005 ft 476 kts 342°
2026-05-05 05:47 0.34696 -70.99589 40006 ft 477 kts 342°
2026-05-05 05:47 0.41017 -71.01602 40003 ft 477 kts 342°
2026-05-05 05:48 0.47307 -71.03606 40009 ft 477 kts 342°
2026-05-05 05:48 0.53672 -71.05633 40003 ft 477 kts 342°
2026-05-05 05:49 0.59960 -71.07636 40003 ft 477 kts 342°
2026-05-05 05:49 0.66291 -71.09653 40006 ft 477 kts 342°
2026-05-05 05:50 0.72657 -71.11680 40009 ft 477 kts 342°
2026-05-05 05:50 0.78944 -71.13683 40006 ft 477 kts 342°
2026-05-05 05:51 0.85262 -71.15696 40006 ft 476 kts 342°
2026-05-05 05:51 0.91575 -71.17707 40005 ft 476 kts 342°
2026-05-05 05:52 0.97885 -71.19717 40006 ft 476 kts 342°
2026-05-05 05:52 1.04189 -71.21726 40009 ft 475 kts 342°
2026-05-05 05:53 1.10488 -71.23733 40006 ft 475 kts 342°
2026-05-05 05:53 1.16791 -71.25741 40002 ft 475 kts 342°
2026-05-05 05:54 1.23087 -71.27747 40002 ft 475 kts 342°
2026-05-05 05:54 1.29381 -71.29753 40002 ft 475 kts 342°
2026-05-05 05:55 1.35633 -71.31745 40003 ft 474 kts 342°
2026-05-05 05:55 1.41925 -71.33750 40004 ft 474 kts 342°
2026-05-05 05:56 1.48214 -71.35755 39996 ft 474 kts 342°
2026-05-05 05:56 1.54500 -71.37758 39998 ft 474 kts 342°
2026-05-05 05:57 1.60788 -71.39762 39999 ft 474 kts 342°
2026-05-05 05:57 1.67080 -71.41768 40002 ft 474 kts 342°
2026-05-05 05:58 1.73372 -71.43774 39998 ft 475 kts 342°
2026-05-05 05:58 1.79662 -71.45779 39996 ft 475 kts 342°
2026-05-05 05:59 1.85958 -71.47786 39997 ft 475 kts 342°
2026-05-05 05:59 1.92253 -71.49794 39996 ft 475 kts 342°
2026-05-05 06:00 1.98590 -71.51815 39996 ft 475 kts 343°
2026-05-05 06:00 2.04849 -71.53811 39995 ft 475 kts 343°
2026-05-05 06:01 2.11150 -71.55820 39995 ft 475 kts 343°
2026-05-05 06:01 2.17457 -71.57832 39993 ft 476 kts 343°
2026-05-05 06:02 2.23764 -71.59844 39991 ft 476 kts 343°
2026-05-05 06:02 2.30077 -71.61858 39991 ft 476 kts 343°
2026-05-05 06:03 2.36383 -71.63870 39994 ft 476 kts 343°
2026-05-05 06:03 2.42692 -71.65883 39997 ft 476 kts 343°
2026-05-05 06:04 2.49012 -71.67900 39990 ft 476 kts 343°
2026-05-05 06:04 2.55328 -71.69917 39990 ft 476 kts 343°
2026-05-05 06:05 2.61650 -71.71932 39991 ft 476 kts 343°
2026-05-05 06:05 2.67961 -71.73944 39988 ft 476 kts 343°
2026-05-05 06:06 2.74272 -71.75956 39986 ft 476 kts 343°
2026-05-05 06:06 2.80581 -71.77968 39988 ft 476 kts 343°
2026-05-05 06:07 2.86851 -71.79968 39985 ft 476 kts 343°
2026-05-05 06:07 2.93198 -71.81993 39986 ft 476 kts 343°
2026-05-05 06:08 2.99462 -71.83992 39988 ft 476 kts 343°
2026-05-05 06:08 3.05772 -71.86006 39984 ft 476 kts 343°
2026-05-05 06:09 3.12089 -71.88022 39985 ft 476 kts 343°
2026-05-05 06:09 3.18407 -71.90039 39988 ft 477 kts 343°
2026-05-05 06:10 3.24728 -71.92057 39987 ft 477 kts 343°
2026-05-05 06:10 3.31055 -71.94076 39989 ft 477 kts 343°
2026-05-05 06:11 3.37384 -71.96098 39989 ft 477 kts 343°
2026-05-05 06:11 3.43721 -71.98122 39986 ft 477 kts 343°
2026-05-05 06:12 3.50048 -72.00142 39984 ft 477 kts 343°
2026-05-05 06:12 3.56375 -72.02164 39983 ft 477 kts 343°
2026-05-05 06:13 3.62699 -72.04185 39986 ft 477 kts 343°
2026-05-05 06:13 3.69020 -72.06205 39984 ft 476 kts 343°
2026-05-05 06:14 3.75336 -72.08223 39981 ft 476 kts 343°
2026-05-05 06:14 3.81648 -72.10241 39985 ft 476 kts 343°
2026-05-05 06:15 3.87958 -72.12259 39985 ft 476 kts 343°
2026-05-05 06:15 3.94266 -72.14276 39983 ft 476 kts 343°
2026-05-05 06:16 4.00581 -72.16294 39981 ft 476 kts 343°
2026-05-05 06:16 4.06896 -72.18311 39980 ft 477 kts 343°
2026-05-05 06:17 4.13217 -72.20332 39980 ft 477 kts 343°
2026-05-05 06:17 4.19544 -72.22355 39981 ft 477 kts 343°
2026-05-05 06:18 4.25876 -72.24381 39981 ft 478 kts 343°
2026-05-05 06:18 4.32220 -72.26410 39979 ft 479 kts 343°
2026-05-05 06:19 4.38577 -72.28444 39983 ft 479 kts 343°
2026-05-05 06:19 4.44897 -72.30467 39981 ft 480 kts 343°
2026-05-05 06:20 4.51267 -72.32506 39979 ft 481 kts 343°
2026-05-05 06:20 4.57645 -72.34548 39982 ft 481 kts 343°
2026-05-05 06:21 4.64029 -72.36592 39983 ft 482 kts 343°
2026-05-05 06:21 4.70421 -72.38639 39984 ft 482 kts 343°
2026-05-05 06:22 4.76815 -72.40687 39986 ft 483 kts 343°
2026-05-05 06:22 4.83207 -72.42735 39989 ft 483 kts 343°
2026-05-05 06:23 4.89605 -72.44785 39995 ft 483 kts 343°
2026-05-05 06:23 4.96001 -72.46835 39996 ft 482 kts 343°
2026-05-05 06:24 5.02397 -72.48885 39996 ft 482 kts 343°
2026-05-05 06:24 5.08776 -72.50930 40000 ft 481 kts 343°
2026-05-05 06:25 5.15153 -72.52976 39997 ft 481 kts 343°
2026-05-05 06:25 5.21532 -72.55022 39997 ft 480 kts 342°
2026-05-05 06:26 5.27899 -72.57065 40000 ft 480 kts 343°
2026-05-05 06:26 5.33184 -72.58761 40010 ft 480 kts 343°
2026-05-05 06:27 5.42721 -72.61822 40048 ft 480 kts 343°
2026-05-05 06:28 5.49098 -72.63870 40085 ft 481 kts 343°
2026-05-05 06:28 5.55486 -72.65922 40135 ft 482 kts 343°
2026-05-05 06:29 5.61882 -72.67976 40152 ft 483 kts 343°
2026-05-05 06:29 5.68298 -72.70037 40158 ft 485 kts 343°
2026-05-05 06:30 5.74737 -72.72107 40164 ft 487 kts 343°
2026-05-05 06:30 5.81196 -72.74183 40167 ft 488 kts 343°
2026-05-05 06:31 5.87664 -72.76262 40165 ft 488 kts 343°
2026-05-05 06:31 5.94143 -72.78346 40157 ft 489 kts 343°
2026-05-05 06:32 6.00620 -72.80429 40154 ft 489 kts 343°
2026-05-05 06:32 6.07099 -72.82514 40145 ft 489 kts 343°
2026-05-05 06:33 6.13578 -72.84600 40128 ft 488 kts 343°
2026-05-05 06:33 6.20043 -72.86682 40113 ft 488 kts 342°
2026-05-05 06:34 6.26509 -72.88765 40101 ft 487 kts 342°
2026-05-05 06:34 6.32963 -72.90831 40088 ft 486 kts 343°
2026-05-05 06:35 6.39372 -72.92851 40073 ft 485 kts 343°
2026-05-05 06:35 6.45809 -72.94876 40067 ft 484 kts 343°
2026-05-05 06:36 6.52241 -72.96905 40056 ft 484 kts 343°
2026-05-05 06:36 6.58661 -72.98933 40048 ft 483 kts 342°
2026-05-05 06:37 6.65074 -73.00960 40045 ft 483 kts 342°
2026-05-05 06:37 6.71486 -73.02988 40041 ft 483 kts 342°
2026-05-05 06:38 6.77894 -73.05015 40039 ft 483 kts 342°
2026-05-05 06:38 6.84302 -73.07042 40029 ft 483 kts 342°
2026-05-05 06:39 6.90714 -73.09071 40021 ft 483 kts 342°
2026-05-05 06:39 6.97117 -73.11098 40012 ft 483 kts 342°
2026-05-05 06:40 7.03519 -73.13125 40006 ft 482 kts 342°
2026-05-05 06:40 7.09925 -73.15154 39995 ft 482 kts 342°
2026-05-05 06:41 7.16328 -73.17182 39986 ft 482 kts 342°
2026-05-05 06:41 7.22725 -73.19210 39982 ft 482 kts 342°
2026-05-05 06:42 7.29125 -73.21238 39974 ft 482 kts 342°
2026-05-05 06:42 7.35525 -73.23268 39965 ft 482 kts 342°
2026-05-05 06:43 7.41925 -73.25298 39959 ft 482 kts 342°
2026-05-05 06:43 7.48322 -73.27328 39954 ft 482 kts 342°
2026-05-05 06:44 7.54724 -73.29359 39950 ft 483 kts 342°
2026-05-05 06:44 7.61132 -73.31394 39948 ft 483 kts 342°
2026-05-05 06:45 7.67553 -73.33433 39951 ft 484 kts 342°
2026-05-05 06:45 7.73978 -73.35474 39949 ft 485 kts 342°
2026-05-05 06:46 7.80371 -73.37506 39946 ft 485 kts 342°
2026-05-05 06:46 7.86854 -73.39567 39941 ft 485 kts 342°
2026-05-05 06:47 7.93296 -73.41616 39941 ft 486 kts 342°
2026-05-05 06:47 7.99711 -73.43656 39943 ft 486 kts 342°
2026-05-05 06:48 8.06167 -73.45711 39933 ft 487 kts 342°
2026-05-05 06:48 8.12627 -73.47768 39940 ft 487 kts 342°
2026-05-05 06:49 8.19097 -73.49828 39938 ft 488 kts 342°
2026-05-05 06:49 8.25572 -73.51898 39931 ft 488 kts 342°
2026-05-05 06:50 8.32038 -73.54022 39924 ft 489 kts 342°
2026-05-05 06:50 8.38496 -73.56161 39927 ft 489 kts 342°
2026-05-05 06:51 8.44968 -73.58300 39923 ft 490 kts 342°
2026-05-05 06:51 8.51450 -73.60438 39924 ft 490 kts 342°
2026-05-05 06:52 8.57932 -73.62574 39915 ft 490 kts 342°
2026-05-05 06:52 8.64417 -73.64713 39911 ft 490 kts 342°
2026-05-05 06:53 8.70894 -73.66850 39910 ft 489 kts 342°
2026-05-05 06:53 8.77363 -73.68985 39907 ft 489 kts 342°
2026-05-05 06:54 8.83820 -73.71117 39900 ft 488 kts 342°
2026-05-05 06:54 8.90274 -73.73250 39894 ft 487 kts 342°
2026-05-05 06:55 8.96716 -73.75378 39891 ft 487 kts 342°
2026-05-05 06:55 9.03148 -73.77504 39884 ft 486 kts 342°
2026-05-05 06:56 9.09571 -73.79628 39878 ft 485 kts 342°
2026-05-05 06:56 9.15992 -73.81753 39883 ft 485 kts 342°
2026-05-05 06:57 9.22403 -73.83875 39878 ft 485 kts 342°
2026-05-05 06:57 9.28816 -73.85998 39876 ft 485 kts 342°
2026-05-05 06:58 9.35231 -73.88123 39874 ft 485 kts 342°
2026-05-05 06:58 9.41607 -73.90236 39880 ft 485 kts 342°
2026-05-05 06:59 9.48049 -73.92300 39879 ft 486 kts 343°
2026-05-05 06:59 9.54515 -73.94292 39879 ft 486 kts 343°
2026-05-05 07:00 9.60983 -73.96286 39880 ft 486 kts 343°
2026-05-05 07:00 9.67450 -73.98294 39884 ft 486 kts 342°
2026-05-05 07:01 9.73921 -74.00311 39879 ft 486 kts 342°
2026-05-05 07:01 9.80393 -74.02330 39886 ft 486 kts 342°
2026-05-05 07:02 9.86862 -74.04348 39885 ft 487 kts 342°
2026-05-05 07:02 9.93332 -74.06367 39875 ft 486 kts 342°
2026-05-05 07:03 9.99801 -74.08387 39882 ft 486 kts 342°
2026-05-05 07:03 10.06269 -74.10407 39896 ft 486 kts 342°
2026-05-05 07:04 10.12745 -74.12430 39898 ft 486 kts 342°
2026-05-05 07:04 10.19209 -74.14450 39886 ft 486 kts 342°
2026-05-05 07:05 10.25674 -74.16472 39887 ft 486 kts 342°
2026-05-05 07:05 10.32093 -74.18480 39891 ft 485 kts 342°
2026-05-05 07:06 10.38545 -74.20499 39891 ft 485 kts 342°
2026-05-05 07:06 10.44988 -74.22516 39890 ft 484 kts 342°
2026-05-05 07:07 10.51420 -74.24531 39890 ft 483 kts 342°
2026-05-05 07:07 10.57843 -74.26544 39890 ft 483 kts 342°
2026-05-05 07:08 10.64261 -74.28556 39886 ft 482 kts 342°
2026-05-05 07:08 10.70666 -74.30565 39884 ft 481 kts 342°
2026-05-05 07:09 10.77064 -74.32572 39884 ft 481 kts 342°
2026-05-05 07:09 10.83399 -74.34561 39881 ft 480 kts 342°
2026-05-05 07:10 10.89774 -74.36563 39870 ft 479 kts 342°
2026-05-05 07:10 10.96139 -74.38563 39868 ft 478 kts 342°
2026-05-05 07:11 11.01419 -74.40223 39863 ft 478 kts 342°
2026-05-05 07:11 11.07772 -74.42221 39864 ft 477 kts 341°
2026-05-05 07:12 11.14111 -74.44215 39866 ft 477 kts 341°
2026-05-05 07:12 11.20445 -74.46209 39868 ft 476 kts 341°
2026-05-05 07:13 11.26765 -74.48199 39875 ft 475 kts 341°
2026-05-05 07:13 11.33075 -74.50187 39879 ft 474 kts 341°
2026-05-05 07:14 11.39372 -74.52172 39881 ft 473 kts 341°
2026-05-05 07:14 11.45660 -74.54155 39883 ft 473 kts 341°
2026-05-05 07:15 11.51946 -74.56137 39883 ft 473 kts 341°
2026-05-05 07:15 11.58228 -74.58119 39886 ft 472 kts 341°
2026-05-05 07:16 11.64504 -74.60101 39887 ft 472 kts 341°
2026-05-05 07:16 11.70775 -74.62083 39894 ft 472 kts 341°
2026-05-05 07:17 11.77046 -74.64066 39892 ft 471 kts 341°
2026-05-05 07:17 11.83314 -74.66049 39895 ft 471 kts 341°
2026-05-05 07:18 11.89581 -74.68032 39897 ft 471 kts 341°
2026-05-05 07:18 11.95794 -74.69995 39902 ft 471 kts 341°
2026-05-05 07:19 12.02062 -74.71946 39900 ft 471 kts 341°
2026-05-05 07:19 12.08376 -74.73903 39897 ft 471 kts 341°
2026-05-05 07:20 12.14597 -74.75837 39898 ft 471 kts 341°
2026-05-05 07:20 12.20861 -74.77787 39906 ft 471 kts 341°
2026-05-05 07:21 12.27130 -74.79741 39910 ft 471 kts 341°
2026-05-05 07:21 12.33393 -74.81694 39908 ft 471 kts 341°
2026-05-05 07:22 12.39663 -74.83650 39912 ft 471 kts 341°
2026-05-05 07:22 12.45940 -74.85609 39913 ft 471 kts 340°
2026-05-05 07:23 12.52217 -74.87569 39914 ft 472 kts 341°
2026-05-05 07:23 12.58499 -74.89530 39910 ft 472 kts 340°
2026-05-05 07:24 12.64738 -74.91481 39918 ft 472 kts 340°
2026-05-05 07:24 12.71068 -74.93461 39920 ft 473 kts 340°
2026-05-05 07:25 12.77359 -74.95429 39914 ft 473 kts 340°
2026-05-05 07:25 12.83616 -74.97389 39918 ft 473 kts 340°
2026-05-05 07:26 12.89920 -74.99362 39923 ft 474 kts 340°
2026-05-05 07:26 12.96228 -75.01340 39915 ft 474 kts 340°
2026-05-05 07:27 13.02539 -75.03318 39916 ft 474 kts 340°
2026-05-05 07:27 13.08855 -75.05299 39917 ft 475 kts 340°
2026-05-05 07:28 13.15172 -75.07283 39923 ft 475 kts 340°
2026-05-05 07:28 13.21491 -75.09267 39921 ft 475 kts 340°
2026-05-05 07:29 13.27815 -75.11254 39922 ft 475 kts 340°
2026-05-05 07:29 13.34138 -75.13243 39924 ft 475 kts 340°
2026-05-05 07:30 13.40461 -75.15232 39925 ft 475 kts 340°
2026-05-05 07:30 13.49950 -75.18218 39925 ft 475 kts 340°
2026-05-05 07:31 13.56277 -75.20211 39928 ft 476 kts 340°
2026-05-05 07:31 13.62603 -75.22205 39931 ft 476 kts 340°
2026-05-05 07:32 13.68937 -75.24203 39930 ft 476 kts 340°
2026-05-05 07:32 13.75274 -75.26202 39927 ft 476 kts 340°
2026-05-05 07:33 13.81605 -75.28201 39928 ft 476 kts 340°
2026-05-05 07:33 13.87952 -75.30206 39929 ft 477 kts 340°
2026-05-05 07:34 13.94292 -75.32210 39928 ft 477 kts 340°
2026-05-05 07:34 14.00633 -75.34215 39932 ft 477 kts 340°
2026-05-05 07:35 14.06986 -75.36226 39935 ft 477 kts 340°
2026-05-05 07:35 14.13336 -75.38237 39935 ft 478 kts 340°
2026-05-05 07:36 14.19694 -75.40251 39928 ft 478 kts 340°
2026-05-05 07:36 14.26053 -75.42267 39931 ft 478 kts 340°
2026-05-05 07:37 14.32413 -75.44284 39933 ft 478 kts 340°
2026-05-05 07:37 14.38773 -75.46302 39926 ft 478 kts 340°
2026-05-05 07:38 14.45139 -75.48324 39938 ft 478 kts 340°
2026-05-05 07:38 14.51507 -75.50348 39931 ft 479 kts 340°
2026-05-05 07:39 14.57870 -75.52371 39935 ft 479 kts 340°
2026-05-05 07:39 14.64191 -75.54382 39931 ft 478 kts 340°
2026-05-05 07:40 14.70551 -75.56407 39935 ft 478 kts 340°
2026-05-05 07:40 14.76918 -75.58435 39936 ft 478 kts 340°
2026-05-05 07:41 14.83275 -75.60461 39938 ft 478 kts 340°
2026-05-05 07:41 14.89634 -75.62489 39933 ft 478 kts 339°
2026-05-05 07:42 14.95987 -75.64518 39940 ft 478 kts 339°
2026-05-05 07:42 15.02342 -75.66548 39943 ft 478 kts 339°
2026-05-05 07:43 15.08696 -75.68583 39942 ft 478 kts 339°
2026-05-05 07:43 15.15045 -75.70620 39943 ft 478 kts 339°
2026-05-05 07:44 15.21397 -75.72660 39938 ft 478 kts 339°
2026-05-05 07:44 15.27754 -75.74702 39942 ft 478 kts 339°
2026-05-05 07:45 15.34106 -75.76743 39939 ft 478 kts 339°
2026-05-05 07:45 15.40453 -75.78785 39942 ft 478 kts 339°
2026-05-05 07:46 15.46801 -75.80828 39938 ft 477 kts 339°
2026-05-05 07:46 15.53147 -75.82871 39948 ft 477 kts 339°
2026-05-05 07:47 15.59484 -75.84913 39939 ft 477 kts 339°
2026-05-05 07:47 15.65829 -75.86959 39952 ft 477 kts 339°
2026-05-05 07:48 15.72124 -75.88991 39937 ft 477 kts 339°
2026-05-05 07:48 15.78459 -75.91036 39937 ft 477 kts 339°
2026-05-05 07:49 15.84797 -75.93083 39945 ft 477 kts 339°
2026-05-05 07:49 15.91130 -75.95131 39954 ft 477 kts 339°
2026-05-05 07:50 15.97466 -75.97181 39951 ft 477 kts 339°
2026-05-05 07:50 16.03802 -75.99232 39945 ft 477 kts 339°
2026-05-05 07:51 16.10141 -76.01285 39948 ft 477 kts 339°
2026-05-05 07:51 16.16480 -76.03340 39949 ft 477 kts 339°
2026-05-05 07:52 16.22812 -76.05394 39948 ft 477 kts 339°
2026-05-05 07:52 16.29149 -76.07451 39946 ft 477 kts 339°
2026-05-05 07:53 16.35479 -76.09507 39949 ft 476 kts 339°
2026-05-05 07:53 16.41808 -76.11564 39950 ft 476 kts 339°
2026-05-05 07:54 16.48088 -76.13606 39954 ft 476 kts 339°
2026-05-05 07:54 16.54444 -76.15675 39956 ft 475 kts 338°
2026-05-05 07:55 16.60756 -76.17731 39955 ft 475 kts 338°
2026-05-05 07:55 16.67019 -76.19772 39950 ft 475 kts 338°
2026-05-05 07:56 16.73322 -76.21828 39955 ft 475 kts 338°
2026-05-05 07:56 16.78601 -76.23552 39956 ft 474 kts 338°
2026-05-05 07:57 16.84905 -76.25611 39957 ft 474 kts 338°
2026-05-05 07:57 16.91204 -76.27669 39959 ft 474 kts 338°
2026-05-05 07:58 16.97492 -76.29742 39957 ft 474 kts 338°
2026-05-05 07:58 17.03772 -76.31827 39953 ft 473 kts 338°
2026-05-05 07:59 17.10043 -76.33912 39954 ft 473 kts 338°
2026-05-05 07:59 17.16311 -76.35995 39950 ft 472 kts 338°
2026-05-05 08:00 17.22572 -76.38076 39952 ft 472 kts 338°
2026-05-05 08:00 17.28824 -76.40155 39948 ft 471 kts 338°
2026-05-05 08:01 17.35065 -76.42232 39943 ft 470 kts 338°
2026-05-05 08:01 17.41298 -76.44308 39942 ft 469 kts 338°
2026-05-05 08:02 17.47516 -76.46381 39941 ft 468 kts 338°
2026-05-05 08:02 17.53719 -76.48450 39940 ft 467 kts 338°
2026-05-05 08:03 17.59910 -76.50516 39943 ft 466 kts 337°
2026-05-05 08:03 17.66087 -76.52580 39945 ft 466 kts 337°
2026-05-05 08:04 17.72267 -76.54646 39951 ft 466 kts 337°
2026-05-05 08:04 17.78443 -76.56712 39958 ft 466 kts 337°
2026-05-05 08:05 17.84617 -76.58779 39963 ft 466 kts 337°
2026-05-05 08:05 17.90789 -76.60847 39964 ft 466 kts 337°
2026-05-05 08:06 17.96925 -76.62904 39944 ft 466 kts 337°
2026-05-05 08:06 18.03141 -76.64989 39947 ft 466 kts 337°
2026-05-05 08:07 18.09315 -76.67063 39954 ft 466 kts 337°
2026-05-05 08:07 18.15457 -76.69126 39956 ft 466 kts 337°
2026-05-05 08:08 18.21641 -76.71203 39949 ft 467 kts 337°
2026-05-05 08:08 18.27838 -76.73290 39961 ft 467 kts 337°
2026-05-05 08:09 18.34022 -76.75373 39960 ft 467 kts 336°
2026-05-05 08:09 18.40208 -76.77458 39960 ft 466 kts 336°
2026-05-05 08:10 18.46389 -76.79542 39957 ft 466 kts 336°
2026-05-05 08:10 18.52569 -76.81628 39959 ft 466 kts 336°
2026-05-05 08:11 18.58749 -76.83715 39956 ft 466 kts 336°
2026-05-05 08:11 18.64926 -76.85803 39960 ft 466 kts 336°
2026-05-05 08:12 18.71100 -76.87892 39962 ft 466 kts 336°
2026-05-05 08:12 18.77276 -76.89983 39965 ft 466 kts 336°
2026-05-05 08:13 18.83454 -76.92076 39962 ft 466 kts 336°
2026-05-05 08:13 18.89622 -76.94167 39967 ft 466 kts 336°
2026-05-05 08:14 18.95790 -76.96260 39970 ft 465 kts 336°
2026-05-05 08:14 19.01955 -76.98354 39972 ft 465 kts 336°
2026-05-05 08:15 19.08110 -77.00446 39971 ft 465 kts 336°
2026-05-05 08:15 19.14264 -77.02539 39973 ft 464 kts 335°
2026-05-05 08:16 19.20410 -77.04632 39972 ft 464 kts 335°
2026-05-05 08:16 19.26555 -77.06726 39976 ft 464 kts 335°
2026-05-05 08:17 19.32692 -77.08818 39976 ft 463 kts 335°
2026-05-05 08:17 19.38881 -77.10792 39974 ft 465 kts 338°
2026-05-05 08:18 19.45100 -77.12551 39981 ft 466 kts 338°
2026-05-05 08:18 19.51365 -77.14332 39982 ft 466 kts 338°
2026-05-05 08:19 19.57611 -77.16145 39980 ft 465 kts 338°
2026-05-05 08:19 19.63851 -77.17969 39979 ft 465 kts 338°
2026-05-05 08:20 19.70098 -77.19797 39981 ft 465 kts 338°
2026-05-05 08:20 19.76347 -77.21624 39985 ft 466 kts 338°
2026-05-05 08:21 19.82591 -77.23452 39979 ft 466 kts 338°
2026-05-05 08:21 19.88840 -77.25280 39989 ft 466 kts 338°
2026-05-05 08:22 19.95089 -77.27106 39981 ft 466 kts 338°
2026-05-05 08:22 20.01344 -77.28935 39991 ft 466 kts 338°
2026-05-05 08:23 20.07598 -77.30766 39991 ft 466 kts 338°
2026-05-05 08:23 20.13846 -77.32598 39983 ft 466 kts 338°
2026-05-05 08:24 20.20090 -77.34429 39983 ft 465 kts 338°
2026-05-05 08:24 20.26326 -77.36260 39986 ft 464 kts 338°
2026-05-05 08:25 20.32552 -77.38089 39985 ft 464 kts 338°
2026-05-05 08:25 20.38770 -77.39918 39988 ft 463 kts 338°
2026-05-05 08:26 20.44973 -77.41744 39986 ft 462 kts 338°
2026-05-05 08:26 20.51171 -77.43570 39981 ft 461 kts 338°
2026-05-05 08:27 20.57355 -77.45386 39981 ft 461 kts 338°
2026-05-05 08:27 20.63548 -77.47163 39986 ft 460 kts 338°
2026-05-05 08:28 20.69736 -77.48934 39986 ft 460 kts 339°
2026-05-05 08:28 20.75912 -77.50709 39988 ft 459 kts 339°
2026-05-05 08:29 20.82080 -77.52486 39992 ft 459 kts 339°
2026-05-05 08:30 20.91321 -77.55151 39991 ft 458 kts 339°
2026-05-05 08:30 20.97434 -77.56916 39992 ft 457 kts 339°
2026-05-05 08:31 21.03577 -77.58686 39994 ft 457 kts 339°
2026-05-05 08:31 21.09708 -77.60443 39990 ft 456 kts 339°
2026-05-05 08:32 21.15830 -77.62199 39990 ft 455 kts 339°
2026-05-05 08:32 21.21934 -77.63953 40002 ft 454 kts 339°
2026-05-05 08:33 21.28024 -77.65706 40001 ft 453 kts 339°
2026-05-05 08:33 21.34103 -77.67457 39995 ft 452 kts 339°
2026-05-05 08:34 21.40175 -77.69207 39996 ft 451 kts 339°
2026-05-05 08:34 21.46231 -77.70955 39996 ft 451 kts 339°
2026-05-05 08:35 21.52281 -77.72702 39995 ft 450 kts 339°
2026-05-05 08:35 21.58326 -77.74449 39998 ft 449 kts 339°
2026-05-05 08:36 21.64386 -77.76203 40003 ft 455 kts 339°
2026-05-05 08:36 21.70542 -77.77988 40001 ft 461 kts 339°
2026-05-05 08:37 21.76702 -77.79934 39998 ft 459 kts 334°
2026-05-05 08:37 21.82615 -77.82522 40000 ft 459 kts 333°
2026-05-05 08:38 21.88506 -77.85160 39991 ft 458 kts 333°
2026-05-05 08:38 21.94392 -77.87771 39985 ft 457 kts 333°
2026-05-05 08:39 21.99273 -77.89921 39985 ft 455 kts 333°
2026-05-05 08:39 22.05122 -77.92493 39986 ft 453 kts 333°
2026-05-05 08:40 22.10939 -77.95053 39983 ft 451 kts 333°
2026-05-05 08:40 22.16736 -77.97607 39985 ft 449 kts 333°
2026-05-05 08:41 22.22513 -78.00155 39986 ft 448 kts 333°
2026-05-05 08:41 22.28274 -78.02699 39986 ft 447 kts 333°
2026-05-05 08:42 22.34028 -78.05242 39983 ft 446 kts 333°
2026-05-05 08:42 22.39775 -78.07784 39986 ft 446 kts 333°
2026-05-05 08:43 22.45524 -78.10329 39989 ft 446 kts 333°
2026-05-05 08:43 22.51269 -78.12875 39988 ft 446 kts 333°
2026-05-05 08:44 22.57017 -78.15424 39984 ft 446 kts 333°
2026-05-05 08:44 22.62763 -78.17974 39984 ft 446 kts 333°
2026-05-05 08:45 22.68512 -78.20528 39986 ft 447 kts 333°
2026-05-05 08:45 22.74258 -78.23083 39985 ft 447 kts 333°
2026-05-05 08:46 22.80009 -78.25643 39987 ft 447 kts 333°
2026-05-05 08:46 22.85763 -78.28206 39986 ft 447 kts 333°
2026-05-05 08:47 22.91513 -78.30770 39989 ft 447 kts 333°
2026-05-05 08:47 22.97222 -78.33318 39988 ft 447 kts 333°
2026-05-05 08:48 23.02974 -78.35887 39993 ft 447 kts 333°
2026-05-05 08:48 23.08720 -78.38456 39985 ft 447 kts 333°
2026-05-05 08:49 23.14464 -78.41027 39985 ft 447 kts 333°
2026-05-05 08:49 23.20206 -78.43600 39988 ft 446 kts 333°
2026-05-05 08:50 23.25951 -78.46175 39985 ft 446 kts 333°
2026-05-05 08:50 23.31690 -78.48751 39987 ft 446 kts 333°
2026-05-05 08:51 23.37425 -78.51327 39985 ft 446 kts 333°
2026-05-05 08:51 23.43157 -78.53904 39987 ft 445 kts 333°
2026-05-05 08:52 23.48882 -78.56481 39988 ft 445 kts 333°
2026-05-05 08:52 23.54602 -78.59058 39987 ft 445 kts 333°
2026-05-05 08:53 23.60317 -78.61635 39988 ft 444 kts 333°
2026-05-05 08:53 23.66026 -78.64212 39988 ft 444 kts 333°
2026-05-05 08:54 23.71731 -78.66789 39988 ft 443 kts 333°
2026-05-05 08:54 23.77423 -78.69363 39988 ft 443 kts 333°
2026-05-05 08:55 23.83108 -78.71937 39988 ft 442 kts 333°
2026-05-05 08:55 23.88781 -78.74507 39985 ft 441 kts 332°
2026-05-05 08:56 23.94444 -78.77076 39985 ft 440 kts 332°
2026-05-05 08:56 24.00090 -78.79653 39973 ft 438 kts 330°
2026-05-05 08:57 24.05368 -78.82883 39986 ft 433 kts 324°
2026-05-05 08:57 24.10452 -78.86393 39990 ft 432 kts 323°
2026-05-05 08:58 24.15556 -78.89858 39978 ft 432 kts 324°
2026-05-05 08:58 24.20687 -78.93272 39976 ft 431 kts 324°
2026-05-05 08:59 24.25818 -78.96668 39982 ft 430 kts 324°
2026-05-05 08:59 24.30936 -79.00059 39982 ft 430 kts 324°
2026-05-05 09:00 24.36012 -79.03427 39981 ft 429 kts 324°
2026-05-05 09:00 24.41145 -79.06838 39982 ft 428 kts 324°
2026-05-05 09:01 24.46201 -79.10200 39980 ft 428 kts 324°
2026-05-05 09:01 24.51322 -79.13609 39982 ft 427 kts 324°
2026-05-05 09:02 24.56359 -79.16965 39242 ft 428 kts 324°
2026-05-05 09:02 24.58898 -79.18658 38594 ft 426 kts 324°
2026-05-05 09:02 24.61434 -79.20350 37761 ft 426 kts 324°
2026-05-05 09:02 24.63964 -79.22040 36972 ft 425 kts 324°
2026-05-05 09:03 24.66492 -79.23730 36174 ft 426 kts 325°
2026-05-05 09:03 24.69029 -79.25425 35330 ft 427 kts 325°
2026-05-05 09:03 24.71576 -79.27130 34407 ft 431 kts 325°
2026-05-05 09:03 24.74149 -79.28852 33366 ft 436 kts 326°
2026-05-05 09:04 24.76755 -79.30597 32295 ft 440 kts 325°
2026-05-05 09:04 24.79382 -79.32355 31233 ft 445 kts 325°
2026-05-05 09:04 24.82026 -79.34126 30404 ft 444 kts 325°
2026-05-05 09:04 24.84667 -79.35894 29499 ft 444 kts 325°
2026-05-05 09:05 24.87294 -79.37654 28577 ft 441 kts 325°
2026-05-05 09:05 24.89902 -79.39403 27737 ft 437 kts 325°
2026-05-05 09:05 24.92489 -79.41138 26938 ft 433 kts 324°
2026-05-05 09:05 24.95052 -79.42859 26127 ft 430 kts 324°
2026-05-05 09:06 24.97598 -79.44571 25343 ft 427 kts 324°
2026-05-05 09:06 25.00127 -79.46272 24544 ft 425 kts 324°
2026-05-05 09:06 25.02649 -79.47969 23774 ft 424 kts 323°
2026-05-05 09:06 25.05125 -79.49634 23513 ft 409 kts 323°
2026-05-05 09:07 25.07512 -79.51238 23264 ft 394 kts 323°
2026-05-05 09:07 25.09812 -79.52784 23054 ft 380 kts 323°
2026-05-05 09:07 25.12065 -79.54303 22453 ft 378 kts 323°
2026-05-05 09:07 25.14269 -79.55790 21915 ft 374 kts 322°
2026-05-05 09:08 25.16508 -79.57301 21375 ft 371 kts 322°
2026-05-05 09:08 25.18674 -79.58764 20850 ft 368 kts 322°
2026-05-05 09:08 25.20850 -79.60233 20329 ft 365 kts 322°
2026-05-05 09:08 25.23009 -79.61692 19810 ft 363 kts 322°
2026-05-05 09:09 25.25158 -79.63146 19306 ft 361 kts 322°
2026-05-05 09:09 25.27297 -79.64592 18782 ft 360 kts 322°
2026-05-05 09:09 25.29427 -79.66034 18282 ft 358 kts 322°
2026-05-05 09:09 25.31549 -79.67470 17719 ft 357 kts 322°
2026-05-05 09:10 25.33660 -79.68899 17195 ft 354 kts 323°
2026-05-05 09:10 25.35757 -79.70318 16693 ft 352 kts 323°
2026-05-05 09:10 25.37829 -79.71728 16201 ft 344 kts 321°
2026-05-05 09:10 25.39594 -79.73422 15773 ft 329 kts 304°
2026-05-05 09:11 25.40906 -79.75456 15448 ft 325 kts 300°
2026-05-05 09:11 25.42192 -79.77529 15113 ft 328 kts 301°
2026-05-05 09:11 25.43496 -79.79610 14780 ft 330 kts 301°
2026-05-05 09:11 25.44815 -79.81687 14438 ft 329 kts 301°
2026-05-05 09:12 25.46138 -79.83754 14093 ft 328 kts 302°
2026-05-05 09:12 25.47453 -79.85805 13748 ft 326 kts 302°
2026-05-05 09:12 25.48764 -79.87849 13379 ft 325 kts 302°
2026-05-05 09:12 25.50068 -79.89884 13028 ft 323 kts 302°
2026-05-05 09:13 25.51363 -79.91906 12673 ft 321 kts 302°
2026-05-05 09:13 25.52650 -79.93916 12339 ft 319 kts 302°
2026-05-05 09:13 25.53929 -79.95916 12014 ft 318 kts 302°
2026-05-05 09:13 25.55203 -79.97909 11688 ft 316 kts 301°
2026-05-05 09:14 25.56459 -79.99871 11365 ft 310 kts 301°
2026-05-05 09:14 25.57693 -80.01800 11036 ft 304 kts 301°
2026-05-05 09:14 25.58902 -80.03693 10742 ft 298 kts 301°
2026-05-05 09:14 25.60082 -80.05542 10437 ft 292 kts 301°
2026-05-05 09:15 25.61232 -80.07341 10112 ft 277 kts 301°
2026-05-05 09:15 25.62316 -80.09036 9823 ft 264 kts 300°
2026-05-05 09:15 25.63363 -80.10682 9539 ft 263 kts 300°
2026-05-05 09:15 25.64425 -80.12351 9247 ft 263 kts 301°
2026-05-05 09:16 25.65471 -80.14013 8975 ft 261 kts 298°
2026-05-05 09:16 25.66302 -80.15766 8757 ft 263 kts 291°
2026-05-05 09:16 25.67072 -80.17660 8505 ft 266 kts 291°
2026-05-05 09:16 25.67820 -80.19482 8256 ft 261 kts 291°
2026-05-05 09:17 25.68575 -80.21291 8021 ft 256 kts 292°
2026-05-05 09:17 25.69325 -80.23083 7782 ft 257 kts 292°
2026-05-05 09:17 25.70085 -80.24881 7526 ft 258 kts 292°
2026-05-05 09:17 25.70847 -80.26688 7247 ft 257 kts 291°
2026-05-05 09:18 25.71235 -80.28576 6980 ft 250 kts 269°
2026-05-05 09:18 25.71139 -80.30506 6758 ft 254 kts 266°
2026-05-05 09:18 25.71036 -80.32487 6501 ft 260 kts 266°
2026-05-05 09:18 25.70938 -80.34478 6228 ft 258 kts 267°
2026-05-05 09:19 25.70842 -80.36458 5954 ft 255 kts 267°
2026-05-05 09:19 25.70748 -80.38410 5687 ft 253 kts 267°
2026-05-05 09:19 25.70655 -80.40349 5432 ft 251 kts 267°
2026-05-05 09:19 25.70562 -80.42284 5198 ft 250 kts 267°
2026-05-05 09:20 25.70464 -80.44198 4989 ft 245 kts 266°
2026-05-05 09:20 25.70336 -80.46054 4852 ft 237 kts 265°
2026-05-05 09:20 25.70206 -80.47845 4737 ft 229 kts 265°
2026-05-05 09:20 25.70078 -80.49572 4622 ft 220 kts 265°
2026-05-05 09:21 25.69954 -80.51227 4524 ft 211 kts 265°
2026-05-05 09:21 25.69835 -80.52814 4451 ft 205 kts 265°
2026-05-05 09:21 25.69714 -80.54373 4440 ft 201 kts 265°
2026-05-05 09:21 25.69650 -80.55910 4377 ft 200 kts 279°
2026-05-05 09:22 25.70345 -80.57213 4309 ft 200 kts 324°
2026-05-05 09:22 25.71633 -80.57645 4258 ft 195 kts
2026-05-05 09:22 25.72976 -80.57504 4220 ft 196 kts
2026-05-05 09:22 25.74334 -80.57332 4143 ft 195 kts
2026-05-05 09:23 25.75584 -80.56815 4061 ft 193 kts 34°
2026-05-05 09:23 25.76586 -80.55828 3967 ft 194 kts 46°
2026-05-05 09:23 25.77463 -80.54697 3772 ft 195 kts 62°
2026-05-05 09:23 25.77734 -80.53228 3610 ft 197 kts 89°
2026-05-05 09:24 25.77744 -80.52215 3497 ft 200 kts 88°
2026-05-05 09:24 25.77809 -80.50688 3316 ft 196 kts 86°
2026-05-05 09:24 25.77876 -80.49196 3123 ft 190 kts 87°
2026-05-05 09:24 25.77936 -80.47754 2927 ft 184 kts 87°
2026-05-05 09:25 25.77994 -80.46344 2691 ft 182 kts 87°
2026-05-05 09:25 25.78051 -80.44958 2430 ft 177 kts 87°
2026-05-05 09:25 25.78106 -80.43636 2181 ft 165 kts 87°
2026-05-05 09:25 25.78155 -80.42432 1994 ft 147 kts 87°
2026-05-05 09:26 25.78201 -80.41336 1808 ft 139 kts 87°
2026-05-05 09:26 25.78245 -80.40284 1635 ft 135 kts 87°
2026-05-05 09:26 25.78288 -80.39232 1468 ft 138 kts 86°
2026-05-05 09:26 25.78332 -80.38173 1281 ft 137 kts 87°
2026-05-05 09:27 25.78376 -80.37110 1089 ft 140 kts 87°
2026-05-05 09:27 25.78420 -80.36036 923 ft 138 kts 86°
2026-05-05 09:27 25.78464 -80.34977 734 ft 138 kts 86°
2026-05-05 09:27 25.78508 -80.33907 567 ft 140 kts 85°
2026-05-05 09:28 25.78552 -80.32812 368 ft 142 kts 86°
2026-05-05 09:28 25.78603 -80.31726 158 ft 140 kts 84°
2026-05-05 09:28 25.78649 -80.30658 30 ft 134 kts 85°
2026-05-05 09:28 25.78688 -80.29747 26 ft 97 kts 86°
2026-05-05 09:29 25.78712 -80.29164 27 ft 60 kts 87°
2026-05-05 09:29 25.78734 -80.28831 22 ft 29 kts 73°
2026-05-05 09:29 25.78829 -80.28673 20 ft 21 kts 44°
2026-05-05 09:29 25.78877 -80.28564 22 ft 8 kts 84°
2026-05-05 09:30 25.78881 -80.28498 23 ft 10 kts 87°
2026-05-05 09:30 25.78884 -80.28420 28 ft 13 kts 88°
2026-05-05 09:30 25.78888 -80.28318 26 ft 16 kts 87°
2026-05-05 09:30 25.78896 -80.28176 27 ft 15 kts 83°
2026-05-05 09:31 25.78925 -80.28126 30 ft 7 kts 21°
2026-05-05 09:31 25.78959 -80.28123 28 ft 3 kts 320°
2026-05-05 09:31 25.78987 -80.28163 31 ft 10 kts 307°
2026-05-05 09:31 25.79023 -80.28231 30 ft 1 kts 298°
2026-05-05 09:32 25.79035 -80.28256 30 ft 7 kts 296°
2026-05-05 09:32 25.79066 -80.28321 30 ft 13 kts 299°
2026-05-05 09:32 25.79074 -80.28338 29 ft 0 kts 299°
2026-05-05 09:36 25.79077 -80.28342 29 ft 2 kts 299°
2026-05-05 09:36 25.79087 -80.28363 28 ft 4 kts 300°
2026-05-05 09:36 25.79110 -80.28399 27 ft 7 kts 316°
2026-05-05 09:36 25.79155 -80.28408 25 ft 7 kts
2026-05-05 09:37 25.79201 -80.28395 24 ft 7 kts 19°
2026-05-05 09:37 25.79241 -80.28366 28 ft 7 kts 38°
2026-05-05 09:37 25.79278 -80.28332 28 ft 7 kts 41°
2026-05-05 09:37 25.79315 -80.28295 28 ft 7 kts 43°
2026-05-05 09:38 25.79346 -80.28253 27 ft 6 kts 57°
2026-05-05 09:38 25.79370 -80.28211 29 ft 6 kts 53°
2026-05-05 09:38 25.79407 -80.28184 29 ft 5 kts 25°
2026-05-05 09:38 25.79440 -80.28166 29 ft 5 kts 28°
2026-05-05 09:39 25.79443 -80.28164 28 ft 0 kts 28°